Norfolk, NE

8:59 PM CDT on September 26, 2016 (GMT -0500)
Stefan Memorial

Weather History for KOFK - May, 2012

Change the Weather History Date:

Wednesday, May 23, 2012

  Actual Average Record
Temperature  
Mean Temperature 70 °F 63 °F  
Max Temperature 84 °F 74 °F 95 °F (1950)
Min Temperature 55 °F 51 °F 35 °F (1913)
Degree Days  
Heating Degree Days 0 4  
Month to date heating degree days 77 162  
Since 1 July heating degree days 5402 6585  
Cooling Degree Days 5 2  
Month to date cooling degree days 88 30  
Year to date cooling degree days 129 42  
Growing Degree Days 20 (Base 50)    
Moisture  
Dew Point 52 °F    
Average Humidity 63    
Maximum Humidity 86    
Minimum Humidity 40    
Precipitation  
Precipitation 0.39 in 0.14 in 1.36 in (1997)
Month to date precipitation 0.86 2.83  
Year to date precipitation 6.49 8.60  
Snow  
Snow 0.00 in 0.00 in - ()
Month to date snowfall 0.0 0.3  
Since 1 July snowfall 15.3 30.8  
Snow Depth 0.00 in    
Sea Level Pressure  
Sea Level Pressure 29.46 in    
Wind  
Wind Speed 18 mph (NW)    
Max Wind Speed 28 mph    
Max Gust Speed 35 mph    
Visibility 9 miles    
Events Rain , Thunderstorm    
T = Trace of Precipitation, MM = Missing Value Source: NWS Daily Summary

Daily Weather History Graph

Daily Weather History Graph

Search for Another Location

Airport or City:

Trip Planner

Search our weather history database for the weather conditions in past years. The results will help you decide how hot, cold, wet, or windy it might be!

Date:

Astronomy

May. 23, 2012 Rise Set
Actual Time 6:01 AM CDT 8:51 PM CDT
Civil Twilight 5:29 AM CDT 9:24 PM CDT
Nautical Twilight 4:47 AM CDT 10:06 PM CDT
Astronomical Twilight 3:59 AM CDT 10:54 PM CDT
Moon 8:05 AM CDT (5/23) 11:13 PM CDT (5/23)
Length of Visible Light 15h 55m
Length of Day
14h 49m
Waxing Crescent, 7% of the Moon is Illuminated
May 23
Waxing Crescent
May 28
First Quarter
Jun 4
Full
Jun 11
Last Quarter
Jun 19
New

Hourly Weather History & Observations

Time (CDT) Temp. Heat Index Dew Point Humidity Pressure Visibility Wind Dir Wind Speed Gust Speed Precip Events Conditions
12:56 AM 72.0 °F - 48.0 °F 43% 29.53 in 10.0 mi South 18.4 mph 28.8 mph N/A   Clear
1:56 AM 71.1 °F - 48.0 °F 44% 29.51 in 10.0 mi South 19.6 mph 33.4 mph N/A   Clear
2:56 AM 70.0 °F - 48.0 °F 46% 29.49 in 10.0 mi South 24.2 mph 34.5 mph N/A   Clear
3:56 AM 69.1 °F - 50.0 °F 51% 29.46 in 10.0 mi South 19.6 mph 31.1 mph N/A   Clear
4:56 AM 69.1 °F - 51.1 °F 53% 29.46 in 10.0 mi South 16.1 mph 25.3 mph N/A   Clear
5:56 AM 64.9 °F - 51.1 °F 61% 29.53 in 10.0 mi NNW 11.5 mph - N/A   Clear
6:56 AM 66.9 °F - 52.0 °F 59% 29.51 in 10.0 mi SE 10.4 mph - N/A   Partly Cloudy
7:56 AM 69.1 °F - 53.1 °F 57% 29.48 in 10.0 mi SE 11.5 mph - N/A   Clear
8:56 AM 72.0 °F - 53.1 °F 51% 29.47 in 10.0 mi SE 11.5 mph 23.0 mph N/A   Clear
9:56 AM 75.0 °F - 55.0 °F 50% 29.44 in 10.0 mi SSE 23.0 mph 29.9 mph N/A   Clear
10:56 AM 80.1 °F 80.2 °F 55.9 °F 43% 29.42 in 10.0 mi South 23.0 mph 32.2 mph N/A   Unknown
11:56 AM 82.0 °F 81.6 °F 55.9 °F 41% 29.41 in 10.0 mi South 19.6 mph - N/A   Partly Cloudy
12:56 PM 81.0 °F 81.0 °F 57.0 °F 44% 29.41 in 10.0 mi SW 17.3 mph 20.7 mph N/A   Overcast
1:56 PM 80.1 °F 80.4 °F 57.0 °F 45% 29.41 in 10.0 mi WNW 16.1 mph 19.6 mph N/A   Overcast
2:11 PM 78.8 °F - 57.2 °F 47% 29.44 in 10.0 mi WNW 12.7 mph - N/A   Mostly Cloudy
2:56 PM 82.0 °F 82.1 °F 59.0 °F 45% 29.40 in 10.0 mi WNW 13.8 mph - N/A   Unknown
3:56 PM 80.1 °F 80.7 °F 59.0 °F 48% 29.40 in 10.0 mi NW 16.1 mph 25.3 mph N/A   Unknown
4:56 PM 75.9 °F - 57.0 °F 52% 29.41 in 10.0 mi NW 21.9 mph - N/A   Unknown
5:56 PM 73.9 °F - 55.9 °F 53% 29.43 in 10.0 mi NNW 20.7 mph 28.8 mph N/A   Clear
6:56 PM 73.0 °F - 51.1 °F 46% 29.44 in 10.0 mi NNW 20.7 mph 26.5 mph N/A   Partly Cloudy
7:56 PM 70.0 °F - 45.0 °F 41% 29.47 in 10.0 mi North 21.9 mph 28.8 mph N/A   Mostly Cloudy
8:56 PM 68.0 °F - 48.0 °F 49% 29.47 in 10.0 mi North 15.0 mph 25.3 mph N/A   Mostly Cloudy
9:56 PM 66.9 °F - 46.0 °F 47% 29.49 in 10.0 mi North 15.0 mph - N/A   Overcast
10:40 PM 64.4 °F - 46.4 °F 52% 29.55 in 8.0 mi NNW 27.6 mph 32.2 mph 0.00 in Rain , Thunderstorm Light Thunderstorms and Rain
10:56 PM 59.0 °F - 50.0 °F 72% 29.51 in 5.0 mi North 21.9 mph 29.9 mph 0.04 in Rain , Thunderstorm Light Thunderstorms and Rain
11:48 PM 57.2 °F - 51.8 °F 82% 29.54 in 3.0 mi NNE 18.4 mph 23.0 mph 0.02 in Rain , Thunderstorm Heavy Thunderstorms and Rain
11:56 PM 55.9 °F - 51.1 °F 84% 29.50 in 3.0 mi NNE 19.6 mph 27.6 mph 0.08 in Rain , Thunderstorm Thunderstorms and Rain